,,,PA_Meas_PMT16A,,PR_Meas_QMR101_102,,RH_Meas_QMH101,,SR_Meas_QMS101,,TA_Meas_QMH101,,GenWind,,GenWind,
date,time,status,PA,status,PR,status,RH,status,SR,status,TA,status,DirAvg,status,SpdAvg,
2010-08-24, 00:00:04,VALID,1005.02,VALID,0,INVALID,119.789,VALID,0,VALID,25.2611,VALID,19,VALID,1.21445,
2010-08-24, 00:01:04,VALID,1004.96,VALID,0,INVALID,119.667,VALID,0,VALID,25.2611,VALID,2,VALID,2.28555,
2010-08-24, 00:02:04,VALID,1004.92,VALID,0,INVALID,119.766,VALID,0,VALID,25.339,VALID,71,VALID,1.42773,
2010-08-24, 00:03:04,VALID,1004.94,VALID,0,INVALID,119.873,VALID,0,VALID,25.3584,VALID,63,VALID,0.505469,
2010-08-24, 00:04:04,VALID,1004.91,VALID,0,INVALID,119.819,VALID,0,VALID,25.3974,VALID,15,VALID,1.62305,
2010-08-24, 00:05:04,VALID,1004.88,VALID,0,INVALID,119.873,VALID,0,VALID,25.5532,VALID,26,VALID,2.93906,
2010-08-24, 00:06:04,VALID,1004.87,VALID,0,INVALID,119.873,VALID,0,VALID,25.6292,VALID,13,VALID,2.43477,
2010-08-24, 00:07:04,VALID,1004.86,VALID,0,INVALID,119.659,VALID,0,VALID,25.6876,VALID,15,VALID,2.17539,
2010-08-24, 00:08:04,VALID,1004.85,VALID,0,INVALID,119.43,VALID,0,VALID,25.7655,VALID,5,VALID,3.35195,
2010-08-24, 00:09:04,VALID,1004.82,VALID,0,INVALID,119.011,VALID,0,VALID,25.8434,VALID,78,VALID,0.846875,
2010-08-24, 00:10:04,VALID,1004.8,VALID,0,INVALID,118.087,VALID,0,VALID,25.8648,VALID,78,VALID,1.56055,
2010-08-24, 00:11:04,VALID,1004.83,VALID,0,INVALID,116.989,VALID,0,VALID,25.8239,VALID,19,VALID,0.544141,
2010-08-24, 00:12:04,VALID,1004.78,VALID,0,INVALID,117.66,VALID,0,VALID,25.8239,VALID,50,VALID,1.75937,
2010-08-24, 00:13:04,VALID,1004.79,VALID,0,INVALID,117.248,VALID,0,VALID,25.8453,VALID,27,VALID,1.9582,
2010-08-24, 00:14:04,VALID,1004.81,VALID,0,INVALID,117.5,VALID,0,VALID,25.8044,VALID,56,VALID,0.896875,
2010-08-24, 00:15:04,VALID,1004.83,VALID,0,INVALID,117.149,VALID,0,VALID,25.8064,VALID,22,VALID,0.671484,
2010-08-24, 00:16:04,VALID,1004.86,VALID,0,INVALID,117.607,VALID,0,VALID,25.746,VALID,59,VALID,0.986719,
2010-08-24, 00:17:04,VALID,1004.84,VALID,0,INVALID,117.698,VALID,0,VALID,25.7265,VALID,50,VALID,0.754297,
2010-08-24, 00:18:04,VALID,1004.82,VALID,0,INVALID,118.415,VALID,0,VALID,25.7285,VALID,13,VALID,1.05547,
2010-08-24, 00:19:04,VALID,1004.82,VALID,0,INVALID,118.629,VALID,0,VALID,25.748,VALID,72,VALID,0.805078,
2010-08-24, 00:20:04,VALID,1004.81,VALID,0,INVALID,118.667,VALID,0,VALID,25.748,VALID,28,VALID,0.737109,
2010-08-24, 00:21:04,VALID,1004.82,VALID,0,INVALID,118.553,VALID,0,VALID,25.7071,VALID,7,VALID,0.850781,
2010-08-24, 00:22:04,VALID,1004.83,VALID,0,INVALID,118.621,VALID,0,VALID,25.7285,VALID,46,VALID,0.666797,
2010-08-24, 00:23:04,VALID,1004.84,VALID,0,INVALID,118.675,VALID,0,VALID,25.748,VALID,68,VALID,0.948438,
2010-08-24, 00:24:04,VALID,1004.83,VALID,0,INVALID,118.347,VALID,0,VALID,25.7265,VALID,10,VALID,0.760156,
2010-08-24, 00:25:04,VALID,1004.84,VALID,0,INVALID,118.309,VALID,0,VALID,25.709,VALID,75,VALID,0.471094,
2010-08-24, 00:26:04,VALID,1004.84,VALID,0,INVALID,118.484,VALID,0,VALID,25.6895,VALID,28,VALID,0.963672,
2010-08-24, 00:27:04,VALID,1004.84,VALID,0,INVALID,118.446,VALID,0,VALID,25.6876,VALID,71,VALID,0.830078,
2010-08-24, 00:28:04,VALID,1004.81,VALID,0,INVALID,118.065,VALID,0,VALID,25.709,VALID,88,VALID,1.09102,
2010-08-24, 00:29:04,VALID,1004.76,VALID,0,INVALID,117.332,VALID,0,VALID,25.7071,VALID,12,VALID,0.560156,
2010-08-24, 00:30:04,VALID,1004.77,VALID,0,INVALID,116.211,VALID,0,VALID,25.7285,VALID,10,VALID,0.526172,
2010-08-24, 00:31:04,VALID,1004.76,VALID,0,INVALID,114.937,VALID,0,VALID,25.709,VALID,22,VALID,0.785937,
2010-08-24, 00:32:04,VALID,1004.75,VALID,0,INVALID,113.853,VALID,0,VALID,25.6681,VALID,16,VALID,1.72305,
2010-08-24, 00:33:04,VALID,1004.76,VALID,0,INVALID,111.099,VALID,0,VALID,25.709,VALID,13,VALID,1.11484,
2010-08-24, 00:34:04,VALID,1004.78,VALID,0,VALID,104,VALID,0,VALID,25.7285,VALID,13,VALID,1.01172,
2010-08-24, 00:35:04,VALID,1004.76,VALID,0,VALID,104,VALID,0,VALID,25.7285,VALID,8,VALID,1.08438,
2010-08-24, 00:36:04,VALID,1004.77,VALID,0,VALID,104,VALID,0,VALID,25.7674,VALID,44,VALID,1.46484,
2010-08-24, 00:37:04,VALID,1004.75,VALID,0,VALID,100.602,VALID,0,VALID,25.8064,VALID,5,VALID,1.33281,
2010-08-24, 00:38:04,VALID,1004.73,VALID,0,VALID,98.9008,VALID,0,VALID,25.7869,VALID,74,VALID,0.369922,
2010-08-24, 00:39:04,VALID,1004.71,VALID,0,VALID,98.8016,VALID,0,VALID,25.8064,VALID,343,VALID,1.11992,
2010-08-24, 00:40:04,VALID,1004.67,VALID,0,VALID,99.0992,VALID,0,VALID,25.7869,VALID,2,VALID,1.36563,
2010-08-24, 00:41:04,VALID,1004.69,VALID,0,VALID,98.0159,VALID,0,VALID,25.8064,VALID,23,VALID,1.02383,
2010-08-24, 00:42:04,VALID,1004.63,VALID,0,VALID,97.4971,VALID,0,VALID,25.7674,VALID,1,VALID,0.827734,
2010-08-24, 00:43:04,VALID,1004.62,VALID,0,VALID,99.6179,VALID,0,VALID,25.7285,VALID,11,VALID,1.16445,
2010-08-24, 00:44:04,VALID,1004.61,VALID,0,VALID,102.082,VALID,0,VALID,25.748,VALID,36,VALID,1.16406,
2010-08-24, 00:45:04,VALID,1004.58,VALID,0,VALID,104,VALID,0,VALID,25.709,VALID,7,VALID,1.8543,
2010-08-24, 00:46:04,VALID,1004.57,VALID,0,VALID,101.228,VALID,0,VALID,25.7674,VALID,32,VALID,1.46953,
2010-08-24, 00:47:04,VALID,1004.57,VALID,0,VALID,97.1691,VALID,0,VALID,25.8259,VALID,22,VALID,0.935156,
2010-08-24, 00:48:04,VALID,1004.53,VALID,0,VALID,95.9179,VALID,0,VALID,25.8453,VALID,29,VALID,1.24844,
2010-08-24, 00:49:04,VALID,1004.5,VALID,0,VALID,95.3152,VALID,0,VALID,25.8259,VALID,14,VALID,0.963672,
2010-08-24, 00:50:04,VALID,1004.49,VALID,0,VALID,96.0857,VALID,0,VALID,25.8064,VALID,354,VALID,1.17813,
2010-08-24, 00:51:04,VALID,1004.46,VALID,0,VALID,97.108,VALID,0,VALID,25.7869,VALID,2,VALID,0.903125,
2010-08-24, 00:52:04,VALID,1004.47,VALID,0,VALID,100.778,VALID,0,VALID,25.7674,VALID,356,VALID,0.771484,
2010-08-24, 00:53:04,VALID,1004.46,VALID,0,VALID,104,VALID,0,VALID,25.709,VALID,16,VALID,0.550781,
2010-08-24, 00:54:04,VALID,1004.42,VALID,0,INVALID,111.458,VALID,0,VALID,25.67,VALID,19,VALID,1.28594,
2010-08-24, 00:55:04,VALID,1004.47,VALID,0,INVALID,113.129,VALID,0,VALID,25.6681,VALID,20,VALID,0.993359,
2010-08-24, 00:56:04,VALID,1004.47,VALID,0,INVALID,112.984,VALID,0,VALID,25.6681,VALID,8,VALID,1.2957,
2010-08-24, 00:57:04,VALID,1004.46,VALID,0,INVALID,112.564,VALID,0.100563,VALID,25.6876,VALID,352,VALID,1.1332,
2010-08-24, 00:58:04,VALID,1004.47,VALID,0,INVALID,111.961,VALID,0.100563,VALID,25.6876,VALID,356,VALID,1.20508,
2010-08-24, 00:59:04,VALID,1004.41,VALID,0,INVALID,111.809,VALID,0.100563,VALID,25.6876,VALID,8,VALID,1.34063,
2010-08-24, 01:00:04,VALID,1004.32,VALID,0,INVALID,111.015,VALID,0.100563,VALID,25.6856,VALID,22,VALID,2.14063,
2010-08-24, 01:01:04,VALID,1004.32,VALID,0,VALID,104,VALID,0.100563,VALID,25.785,VALID,351,VALID,3.07578,
2010-08-24, 01:02:04,VALID,1004.31,VALID,0,VALID,96.101,VALID,0.100563,VALID,25.8629,VALID,352,VALID,1.11523,
2010-08-24, 01:03:04,VALID,1004.33,VALID,0,VALID,93.4385,VALID,0.100563,VALID,25.8629,VALID,11,VALID,1.40469,
2010-08-24, 01:04:04,VALID,1004.34,VALID,0,VALID,94.2014,VALID,0.100563,VALID,25.8239,VALID,20,VALID,1.1918,
2010-08-24, 01:05:04,VALID,1004.28,VALID,0,VALID,96.3604,VALID,0.100563,VALID,25.785,VALID,12,VALID,0.861328,
2010-08-24, 01:06:04,VALID,1004.26,VALID,0,VALID,98.1761,VALID,0,VALID,25.785,VALID,359,VALID,1.46641,
2010-08-24, 01:07:04,VALID,1004.26,VALID,0,VALID,96.5969,VALID,0,VALID,25.785,VALID,295,VALID,0.800781,
2010-08-24, 01:08:04,VALID,1004.3,VALID,0,VALID,98.5117,VALID,0.100563,VALID,25.7655,VALID,21,VALID,1.82266,
2010-08-24, 01:09:04,VALID,1004.26,VALID,0,VALID,100.953,VALID,0.100563,VALID,25.8044,VALID,9,VALID,2.60664,
2010-08-24, 01:10:04,VALID,1004.21,VALID,0,VALID,95.0101,VALID,0,VALID,25.9018,VALID,25,VALID,2.05,
2010-08-24, 01:11:04,VALID,1004.19,VALID,0,VALID,91.8441,VALID,0,VALID,26.0012,VALID,57,VALID,1.27031,
2010-08-24, 01:12:04,VALID,1004.18,VALID,0,VALID,90.5167,VALID,0,VALID,26.0401,VALID,26,VALID,0.862891,
2010-08-24, 01:13:04,VALID,1004.22,VALID,0,VALID,90.3107,VALID,0,VALID,26.0206,VALID,29,VALID,0.521484,
2010-08-24, 01:14:04,VALID,1004.21,VALID,0,VALID,90.5167,VALID,0,VALID,26.0012,VALID,346,VALID,1.22187,
2010-08-24, 01:15:04,VALID,1004.18,VALID,0,VALID,90.7989,VALID,0,VALID,25.9622,VALID,5,VALID,1.04414,
2010-08-24, 01:16:04,VALID,1004.16,VALID,0,VALID,91.5923,VALID,0,VALID,25.9622,VALID,34,VALID,1.72305,
2010-08-24, 01:17:04,VALID,1004.18,VALID,0,VALID,91.6991,VALID,0,VALID,26.0012,VALID,354,VALID,0.894922,
2010-08-24, 01:18:04,VALID,1004.18,VALID,0,VALID,91.5542,VALID,0,VALID,26.0012,VALID,19,VALID,2.57188,
2010-08-24, 01:19:04,VALID,1004.18,VALID,0,VALID,90.4862,VALID,0,VALID,26.0596,VALID,17,VALID,2.18789,
2010-08-24, 01:20:04,VALID,1004.15,VALID,0,VALID,90.1963,VALID,0,VALID,26.0791,VALID,65,VALID,0.563281,
2010-08-24, 01:21:04,VALID,1004.11,VALID,0,VALID,89.914,VALID,0,VALID,26.0791,VALID,35,VALID,0.877344,
2010-08-24, 01:22:04,VALID,1004.09,VALID,0,VALID,89.7156,VALID,0,VALID,26.0791,VALID,3,VALID,1.225,
2010-08-24, 01:23:04,VALID,1004.08,VALID,0,VALID,89.5325,VALID,0,VALID,26.0401,VALID,354,VALID,0.583984,
2010-08-24, 01:24:04,VALID,1004.08,VALID,0,VALID,89.8606,VALID,0,VALID,26.0226,VALID,341,VALID,0.922266,
2010-08-24, 01:25:04,VALID,1004.07,VALID,0,VALID,89.3647,VALID,0.100563,VALID,25.9213,VALID,10,VALID,1.10352,
2010-08-24, 01:26:04,VALID,1004.05,VALID,0,VALID,90.8295,VALID,0.100563,VALID,25.7655,VALID,358,VALID,0.511719,
2010-08-24, 01:27:04,VALID,1004.07,VALID,0,VALID,93.2478,VALID,0.100563,VALID,25.6876,VALID,354,VALID,1.24922,
2010-08-24, 01:28:04,VALID,1004.01,VALID,0,VALID,104,VALID,0,VALID,25.5707,VALID,359,VALID,1.14063,
2010-08-24, 01:29:04,VALID,1004.03,VALID,0,INVALID,114.906,VALID,0,VALID,25.5513,VALID,338,VALID,1.85234,
2010-08-24, 01:30:04,VALID,1003.99,VALID,0,INVALID,117.248,VALID,0,VALID,25.5707,VALID,338,VALID,1.15234,
2010-08-24, 01:31:04,VALID,1003.99,VALID,0,INVALID,115.646,VALID,0,VALID,25.5318,VALID,16,VALID,1.08164,
2010-08-24, 01:32:04,VALID,1004.02,VALID,0,INVALID,115.967,VALID,0.100563,VALID,25.4753,VALID,2,VALID,1.17422,
2010-08-24, 01:33:04,VALID,1004,VALID,0,INVALID,116.836,VALID,0.100563,VALID,25.376,VALID,14,VALID,0.635156,
2010-08-24, 01:34:04,VALID,1003.94,VALID,0,INVALID,117.92,VALID,0.100563,VALID,25.3176,VALID,354,VALID,1.01836,
2010-08-24, 01:35:04,VALID,1003.97,VALID,0,INVALID,118.766,VALID,0.100563,VALID,25.3,VALID,351,VALID,1.42109,
2010-08-24, 01:36:04,VALID,1003.98,VALID,0,INVALID,119.133,VALID,0.100563,VALID,25.2592,VALID,352,VALID,1.56523,
2010-08-24, 01:37:04,VALID,1003.95,VALID,0,INVALID,119.217,VALID,0,VALID,25.2397,VALID,355,VALID,1.02773,
2010-08-24, 01:38:04,VALID,1003.94,VALID,0,INVALID,119.285,VALID,0.100563,VALID,25.2202,VALID,4,VALID,0.894922,
2010-08-24, 01:39:04,VALID,1003.86,VALID,0,INVALID,119.293,VALID,0.100563,VALID,25.2007,VALID,7,VALID,2.60391,
2010-08-24, 01:40:04,VALID,1003.86,VALID,0,INVALID,119.529,VALID,0,VALID,25.2611,VALID,358,VALID,1.28555,
2010-08-24, 01:41:04,VALID,1003.79,VALID,0,INVALID,119.354,VALID,0,VALID,25.1832,VALID,358,VALID,0.723047,
2010-08-24, 01:42:04,VALID,1003.81,VALID,0,INVALID,119.377,VALID,0,VALID,25.1442,VALID,351,VALID,1.41406,
2010-08-24, 01:43:04,VALID,1003.77,VALID,0,INVALID,119.468,VALID,0,VALID,25.1248,VALID,352,VALID,1.39258,
2010-08-24, 01:44:04,VALID,1003.7,VALID,0,INVALID,119.529,VALID,0,VALID,25.0858,VALID,359,VALID,1.00195,
2010-08-24, 01:45:04,VALID,1003.71,VALID,0,INVALID,119.56,VALID,0,VALID,25.1053,VALID,4,VALID,1.32344,
2010-08-24, 01:46:04,VALID,1003.67,VALID,0,INVALID,119.674,VALID,0,VALID,25.1053,VALID,349,VALID,1.11484,
2010-08-24, 01:47:04,VALID,1003.67,VALID,0,INVALID,119.674,VALID,0,VALID,25.2027,VALID,15,VALID,1.16602,
2010-08-24, 01:48:04,VALID,1003.64,VALID,0,INVALID,119.819,VALID,0,VALID,25.3,VALID,3,VALID,0.997266,
2010-08-24, 01:49:04,VALID,1003.64,VALID,0,INVALID,119.728,VALID,0,VALID,25.339,VALID,61,VALID,1.35781,
2010-08-24, 01:50:04,VALID,1003.61,VALID,0,INVALID,119.606,VALID,0,VALID,25.3584,VALID,76,VALID,1.34844,
2010-08-24, 01:51:04,VALID,1003.61,VALID,0,INVALID,119.529,VALID,0,VALID,25.3779,VALID,352,VALID,1.74922,
2010-08-24, 01:52:04,VALID,1003.62,VALID,0,INVALID,119.529,VALID,0,VALID,25.4169,VALID,21,VALID,0.934766,
2010-08-24, 01:53:04,VALID,1003.61,VALID,0,INVALID,119.514,VALID,0,VALID,25.5142,VALID,342,VALID,1.28437,
2010-08-24, 01:54:04,VALID,1003.62,VALID,0,INVALID,119.155,VALID,0,VALID,25.5337,VALID,16,VALID,1.85977,
2010-08-24, 01:55:04,VALID,1003.55,VALID,0,INVALID,119.163,VALID,0,VALID,25.5941,VALID,16,VALID,2.08359,
2010-08-24, 01:56:04,VALID,1003.55,VALID,0,INVALID,119.178,VALID,0,VALID,25.7285,VALID,14,VALID,2.05195,
2010-08-24, 01:57:04,VALID,1003.52,VALID,0,INVALID,118.271,VALID,0,VALID,25.8843,VALID,21,VALID,2.28555,
2010-08-24, 01:58:04,VALID,1003.48,VALID,0,VALID,104,VALID,0,VALID,25.9992,VALID,44,VALID,1.28945,
2010-08-24, 01:59:04,VALID,1003.48,VALID,0,VALID,95.6433,VALID,0,VALID,26.157,VALID,35,VALID,1.83945,
2010-08-24, 02:00:04,VALID,1003.46,VALID,0,VALID,91.3864,VALID,0,VALID,26.2154,VALID,9,VALID,1.76797,
2010-08-24, 02:01:04,VALID,1003.38,VALID,0,VALID,89.8377,VALID,0,VALID,26.2349,VALID,359,VALID,2.65859,
2010-08-24, 02:02:04,VALID,1003.45,VALID,0,VALID,89.4563,VALID,0,VALID,26.2349,VALID,19,VALID,0.840625,
2010-08-24, 02:03:04,VALID,1003.38,VALID,0,VALID,89.8606,VALID,0,VALID,26.194,VALID,20,VALID,2.81172,
2010-08-24, 02:04:04,VALID,1003.36,VALID,0,VALID,88.907,VALID,0,VALID,26.3323,VALID,25,VALID,1.73984,
2010-08-24, 02:05:04,VALID,1003.35,VALID,0,VALID,88.1441,VALID,0,VALID,26.3907,VALID,34,VALID,2.45586,
2010-08-24, 02:06:04,VALID,1003.36,VALID,0,VALID,87.6101,VALID,0,VALID,26.4687,VALID,43,VALID,1.9875,
2010-08-24, 02:07:04,VALID,1003.31,VALID,0,VALID,87.3888,VALID,0,VALID,26.4492,VALID,19,VALID,1.4625,
2010-08-24, 02:08:04,VALID,1003.38,VALID,0,VALID,87.4575,VALID,0,VALID,26.4297,VALID,32,VALID,1.48828,
2010-08-24, 02:09:04,VALID,1003.35,VALID,0,VALID,87.3659,VALID,0,VALID,26.4102,VALID,26,VALID,1.51445,
2010-08-24, 02:10:04,VALID,1003.32,VALID,0,VALID,87.1371,VALID,0,VALID,26.4102,VALID,30,VALID,2.1168,
2010-08-24, 02:11:04,VALID,1003.35,VALID,0,VALID,86.8777,VALID,0,VALID,26.4687,VALID,34,VALID,2.01094,
2010-08-24, 02:12:04,VALID,1003.31,VALID,0,VALID,86.6412,VALID,0,VALID,26.5076,VALID,70,VALID,1.99414,
2010-08-24, 02:13:04,VALID,1003.32,VALID,0,VALID,86.3208,VALID,0,VALID,26.5271,VALID,16,VALID,2.75508,
2010-08-24, 02:14:04,VALID,1003.29,VALID,0,VALID,86.0156,VALID,0,VALID,26.5466,VALID,29,VALID,2.67266,
2010-08-24, 02:15:04,VALID,1003.31,VALID,0,VALID,85.7868,VALID,0,VALID,26.5446,VALID,5,VALID,1.80977,
2010-08-24, 02:16:04,VALID,1003.34,VALID,0,VALID,85.7868,VALID,0,VALID,26.5251,VALID,75,VALID,1.29375,
2010-08-24, 02:17:04,VALID,1003.34,VALID,0,VALID,85.6418,VALID,0,VALID,26.5466,VALID,32,VALID,2.85977,
2010-08-24, 02:18:04,VALID,1003.35,VALID,0,VALID,85.6037,VALID,0,VALID,26.5661,VALID,64,VALID,1.97539,
2010-08-24, 02:19:04,VALID,1003.34,VALID,0,VALID,85.3443,VALID,0,VALID,26.5271,VALID,8,VALID,2.65078,
2010-08-24, 02:20:04,VALID,1003.38,VALID,0,VALID,85.2909,VALID,0,VALID,26.5056,VALID,20,VALID,1.97734,
2010-08-24, 02:21:04,VALID,1003.39,VALID,0,VALID,85.4206,VALID,0,VALID,26.4881,VALID,51,VALID,1.75312,
2010-08-24, 02:22:04,VALID,1003.41,VALID,0,VALID,85.6113,VALID,0,VALID,26.4687,VALID,35,VALID,0.641016,
2010-08-24, 02:23:04,VALID,1003.41,VALID,0,VALID,85.68,VALID,0,VALID,26.4102,VALID,68,VALID,0.546094,
2010-08-24, 02:24:04,VALID,1003.43,VALID,0,VALID,85.802,VALID,0,VALID,26.3907,VALID,86,VALID,1.575,
2010-08-24, 02:25:04,VALID,1003.41,VALID,0,VALID,85.8783,VALID,0,VALID,26.3713,VALID,93,VALID,0.690234,
2010-08-24, 02:26:04,VALID,1003.42,VALID,0,VALID,86.0309,VALID,0,VALID,26.3128,VALID,28,VALID,0.255078,
2010-08-24, 02:27:04,VALID,1003.42,VALID,0,VALID,86.2979,VALID,0,VALID,26.2759,VALID,50,VALID,0.881641,
2010-08-24, 02:28:04,VALID,1003.45,VALID,0,VALID,86.6259,VALID,0,VALID,26.2154,VALID,69,VALID,1.80938,
2010-08-24, 02:29:04,VALID,1003.42,VALID,0,VALID,86.8701,VALID,0,VALID,26.1765,VALID,88,VALID,1.425,
2010-08-24, 02:30:04,VALID,1003.43,VALID,0,VALID,87.0074,VALID,0,VALID,26.1375,VALID,58,VALID,1.41914,
2010-08-24, 02:31:04,VALID,1003.38,VALID,0,VALID,87.1981,VALID,0,VALID,26.0985,VALID,17,VALID,2.04063,
2010-08-24, 02:32:04,VALID,1003.42,VALID,0,VALID,87.282,VALID,0,VALID,26.0596,VALID,78,VALID,0.865625,
2010-08-24, 02:33:04,VALID,1003.36,VALID,0,VALID,87.488,VALID,0,VALID,26.0596,VALID,58,VALID,1.82031,
2010-08-24, 02:34:04,VALID,1003.38,VALID,0,VALID,87.4422,VALID,0,VALID,26.0596,VALID,47,VALID,0.691016,
2010-08-24, 02:35:04,VALID,1003.34,VALID,0,VALID,87.5872,VALID,0,VALID,26.0206,VALID,33,VALID,1.00273,
2010-08-24, 02:36:04,VALID,1003.33,VALID,0,VALID,87.6635,VALID,0,VALID,26.0031,VALID,79,VALID,0.684766,
2010-08-24, 02:37:04,VALID,1003.33,VALID,0,VALID,87.7092,VALID,0,VALID,26.0012,VALID,17,VALID,1.91797,
2010-08-24, 02:38:04,VALID,1003.35,VALID,0,VALID,87.5567,VALID,0,VALID,26.0401,VALID,30,VALID,1.7125,
2010-08-24, 02:39:04,VALID,1003.36,VALID,0,VALID,87.3736,VALID,0,VALID,26.0616,VALID,27,VALID,0.640234,
2010-08-24, 02:40:04,VALID,1003.33,VALID,0,VALID,87.3736,VALID,0,VALID,26.0576,VALID,21,VALID,1.06602,
2010-08-24, 02:41:04,VALID,1003.33,VALID,0,VALID,87.2896,VALID,0,VALID,26.0791,VALID,78,VALID,0.860156,
2010-08-24, 02:42:04,VALID,1003.35,VALID,0,VALID,87.2896,VALID,0.100563,VALID,26.0771,VALID,74,VALID,2.34727,
2010-08-24, 02:43:04,VALID,1003.34,VALID,0,VALID,87.2057,VALID,0.100563,VALID,26.0771,VALID,7,VALID,1.08672,
2010-08-24, 02:44:04,VALID,1003.32,VALID,0,VALID,87.16,VALID,0.100563,VALID,26.0771,VALID,52,VALID,0.716016,
2010-08-24, 02:45:04,VALID,1003.34,VALID,0,VALID,87.2744,VALID,0,VALID,26.0576,VALID,322,VALID,0.856641,
2010-08-24, 02:46:04,VALID,1003.34,VALID,0,VALID,87.3888,VALID,0,VALID,26.0381,VALID,94,VALID,1.42422,
2010-08-24, 02:47:04,VALID,1003.3,VALID,0,VALID,87.4193,VALID,0.100563,VALID,26.0381,VALID,60,VALID,0.633594,
2010-08-24, 02:48:04,VALID,1003.32,VALID,0,VALID,87.2515,VALID,0.100563,VALID,26.0187,VALID,17,VALID,1.22109,
2010-08-24, 02:49:04,VALID,1003.32,VALID,0,VALID,87.1905,VALID,0.100563,VALID,26.0187,VALID,93,VALID,0.723437,
2010-08-24, 02:50:04,VALID,1003.27,VALID,0,VALID,87.0684,VALID,0.100563,VALID,26.0187,VALID,15,VALID,1.46758,
2010-08-24, 02:51:04,VALID,1003.33,VALID,0,VALID,86.8624,VALID,0.100563,VALID,26.0576,VALID,83,VALID,1.33086,
2010-08-24, 02:52:04,VALID,1003.32,VALID,0,VALID,86.5802,VALID,0.100563,VALID,26.0576,VALID,21,VALID,1.34766,
2010-08-24, 02:53:04,VALID,1003.31,VALID,0,VALID,86.4123,VALID,0,VALID,26.0985,VALID,61,VALID,1.62148,
2010-08-24, 02:54:04,VALID,1003.29,VALID,0,VALID,86.214,VALID,0,VALID,26.0771,VALID,18,VALID,0.851172,
2010-08-24, 02:55:04,VALID,1003.32,VALID,0,VALID,86.0004,VALID,0.100563,VALID,26.0966,VALID,27,VALID,0.700391,
2010-08-24, 02:56:04,VALID,1003.37,VALID,0,VALID,86.0385,VALID,0.100563,VALID,26.0966,VALID,80,VALID,0.729688,
2010-08-24, 02:57:04,VALID,1003.4,VALID,0,VALID,86.1224,VALID,0,VALID,26.0576,VALID,80,VALID,0.944531,
2010-08-24, 02:58:04,VALID,1003.39,VALID,0,VALID,85.9851,VALID,0.100563,VALID,26.0966,VALID,89,VALID,1.64414,
2010-08-24, 02:59:04,VALID,1003.43,VALID,0,VALID,85.8325,VALID,0,VALID,26.0966,VALID,49,VALID,1.39805,
2010-08-24, 03:00:04,VALID,1003.43,VALID,0,VALID,85.7868,VALID,0.100563,VALID,26.0966,VALID,53,VALID,1.00859,
2010-08-24, 03:01:04,VALID,1003.37,VALID,0,VALID,85.7639,VALID,0,VALID,26.118,VALID,88,VALID,1.00547,
2010-08-24, 03:02:04,VALID,1003.37,VALID,0,VALID,85.802,VALID,0,VALID,26.0985,VALID,77,VALID,0.826563,
2010-08-24, 03:03:04,VALID,1003.39,VALID,0,VALID,86.0156,VALID,0.100563,VALID,26.0381,VALID,84,VALID,1.31992,
2010-08-24, 03:04:04,VALID,1003.37,VALID,0,VALID,86.0843,VALID,0.100563,VALID,26.0187,VALID,68,VALID,1.55547,
2010-08-24, 03:05:04,VALID,1003.38,VALID,0,VALID,86.1835,VALID,0.100563,VALID,25.9992,VALID,76,VALID,1.05625,
2010-08-24, 03:06:04,VALID,1003.35,VALID,0,VALID,86.2598,VALID,0,VALID,25.9583,VALID,125,VALID,1.0668,
2010-08-24, 03:07:04,VALID,1003.38,VALID,0,VALID,86.4352,VALID,0.100563,VALID,25.9408,VALID,82,VALID,1.29414,
2010-08-24, 03:08:04,VALID,1003.33,VALID,0,VALID,86.4276,VALID,0.100563,VALID,25.9622,VALID,71,VALID,0.853516,
2010-08-24, 03:09:04,VALID,1003.32,VALID,0,VALID,86.4428,VALID,0.100563,VALID,25.9408,VALID,99,VALID,0.667969,
2010-08-24, 03:10:04,VALID,1003.34,VALID,0,VALID,86.5573,VALID,0,VALID,25.8843,VALID,66,VALID,0.618359,
2010-08-24, 03:11:04,VALID,1003.34,VALID,0,VALID,86.7556,VALID,0,VALID,25.8453,VALID,66,VALID,0.981641,
2010-08-24, 03:12:04,VALID,1003.33,VALID,0,VALID,86.9006,VALID,0,VALID,25.8044,VALID,69,VALID,0.526172,
2010-08-24, 03:13:04,VALID,1003.34,VALID,0,VALID,87.0074,VALID,0,VALID,25.8064,VALID,78,VALID,1.60781,
2010-08-24, 03:14:04,VALID,1003.37,VALID,0,VALID,86.8319,VALID,0,VALID,25.8668,VALID,42,VALID,1.43164,
2010-08-24, 03:15:04,VALID,1003.37,VALID,0,VALID,86.6412,VALID,0,VALID,25.8863,VALID,56,VALID,0.771484,
2010-08-24, 03:16:04,VALID,1003.41,VALID,0,VALID,86.542,VALID,0,VALID,25.9057,VALID,94,VALID,0.887891,
2010-08-24, 03:17:04,VALID,1003.42,VALID,0,VALID,86.5268,VALID,0,VALID,25.8668,VALID,82,VALID,0.821875,
2010-08-24, 03:18:04,VALID,1003.42,VALID,0,VALID,86.6412,VALID,0,VALID,25.8648,VALID,108,VALID,1.66719,
2010-08-24, 03:19:04,VALID,1003.39,VALID,0,VALID,86.6488,VALID,0,VALID,25.8453,VALID,56,VALID,0.868359,
2010-08-24, 03:20:04,VALID,1003.41,VALID,0,VALID,86.7404,VALID,0,VALID,25.8064,VALID,59,VALID,0.787109,
2010-08-24, 03:21:04,VALID,1003.42,VALID,0,VALID,86.7633,VALID,0,VALID,25.8259,VALID,46,VALID,1.475,
2010-08-24, 03:22:04,VALID,1003.39,VALID,0,VALID,86.7938,VALID,0,VALID,25.8064,VALID,26,VALID,0.486719,
2010-08-24, 03:23:04,VALID,1003.4,VALID,0,VALID,86.809,VALID,0,VALID,25.8064,VALID,93,VALID,0.492578,
2010-08-24, 03:24:04,VALID,1003.44,VALID,0,VALID,86.8624,VALID,0,VALID,25.8064,VALID,82,VALID,1.39414,
2010-08-24, 03:25:04,VALID,1003.46,VALID,0,VALID,86.8243,VALID,0.100563,VALID,25.8044,VALID,79,VALID,1.09727,
2010-08-24, 03:26:04,VALID,1003.46,VALID,0,VALID,86.8395,VALID,0,VALID,25.8044,VALID,38,VALID,1.14688,
2010-08-24, 03:27:04,VALID,1003.48,VALID,0,VALID,86.7709,VALID,0,VALID,25.8044,VALID,61,VALID,0.665234,
2010-08-24, 03:28:04,VALID,1003.48,VALID,0,VALID,86.809,VALID,0.100563,VALID,25.7635,VALID,72,VALID,0.603125,
2010-08-24, 03:29:04,VALID,1003.47,VALID,0,VALID,86.8472,VALID,0,VALID,25.7869,VALID,3,VALID,0.366406,
2010-08-24, 03:30:04,VALID,1003.47,VALID,0,VALID,86.9311,VALID,0.100563,VALID,25.7265,VALID,6,VALID,0.498828,
2010-08-24, 03:31:04,VALID,1003.46,VALID,0,VALID,87.1218,VALID,0,VALID,25.7071,VALID,31,VALID,1.01445,
2010-08-24, 03:32:04,VALID,1003.48,VALID,0,VALID,87.1066,VALID,0.100563,VALID,25.6856,VALID,54,VALID,0.3875,
2010-08-24, 03:33:04,VALID,1003.46,VALID,0,VALID,87.1523,VALID,0,VALID,25.7071,VALID,86,VALID,0.439844,
2010-08-24, 03:34:04,VALID,1003.45,VALID,0,VALID,87.1523,VALID,0,VALID,25.7265,VALID,55,VALID,0.866406,
2010-08-24, 03:35:04,VALID,1003.43,VALID,0,VALID,87.0913,VALID,0,VALID,25.746,VALID,68,VALID,0.746484,
2010-08-24, 03:36:04,VALID,1003.42,VALID,0,VALID,87.0074,VALID,0.100563,VALID,25.746,VALID,29,VALID,0.817187,
2010-08-24, 03:37:04,VALID,1003.36,VALID,0,VALID,87.0226,VALID,0,VALID,25.7265,VALID,57,VALID,0.604688,
2010-08-24, 03:38:04,VALID,1003.38,VALID,0,VALID,87.0913,VALID,0.100563,VALID,25.6856,VALID,16,VALID,1.0207,
2010-08-24, 03:39:04,VALID,1003.33,VALID,0,VALID,87.0455,VALID,0,VALID,25.7265,VALID,19,VALID,1.03555,
2010-08-24, 03:40:04,VALID,1003.33,VALID,0,VALID,86.7709,VALID,0,VALID,25.8083,VALID,17,VALID,2.19844,
2010-08-24, 03:41:04,VALID,1003.33,VALID,0,VALID,86.3055,VALID,0,VALID,25.9057,VALID,20,VALID,1.3043,
2010-08-24, 03:42:04,VALID,1003.29,VALID,0,VALID,85.7028,VALID,0,VALID,26.0031,VALID,38,VALID,1.76016,
2010-08-24, 03:43:04,VALID,1003.3,VALID,0,VALID,85.1307,VALID,0,VALID,26.0985,VALID,11,VALID,1.52383,